Probability
0 0 0 0 0 0 0 0 0 0 0 0 0 0 0 0 0 0 0 0 0 0 0 0 0 0 0 0 0 0 0 0 0 0 0 0 0 1 2 1 0 0 0 0
0 0 0 0 0 0 0 0 0 0 0 0 0 0 0 0 0 0 0 0 0 0 0 0 0 0 0 0 0 0 0 0 0 0 0 0 0 1 2 2 1 1 0 0
0 0 0 0 0 0 0 0 0 0 0 0 0 0 0 0 0 0 0 0 0 0 0 0 0 0 0 0 0 0 0 0 0 0 0 0 0 0 1 1 2 2 1 0
0 0 0 0 0 0 0 0 0 0 0 0 0 0 0 0 0 0 0 0 0 0 0 0 0 0 0 0 0 0 0 0 0 0 0 0 0 0 0 0 1 2 1 0
0 0 0 0 0 0 0 0 0 0 0 0 0 0 0 0 0 0 0 0 0 0 0 0 0 0 0 0 1 0 0 0 0 0 0 0 0 0 0 0 1 2 1 1
0 0 0 0 0 0 0 0 0 0 0 0 0 0 0 0 0 0 0 0 0 0 0 0 0 0 0 0 0 0 0 0 0 0 0 0 0 0 0 0 0 1 1 0
0 0 0 0 0 0 0 0 0 0 0 0 0 0 0 0 0 0 0 0 0 0 0 0 0 0 0 0 0 0 0 0 0 0 0 0 0 0 0 0 0 0 0 0
0 0 0 0 0 0 0 0 0 0 0 0 0 0 0 0 0 0 0 0 0 0 0 0 0 0 0 0 0 0 0 0 0 0 0 0 0 0 0 0 0 0 0 0
0 0 0 0 0 0 0 0 0 0 0 0 0 0 0 0 0 0 0 0 0 0 0 0 0 0 0 0 0 0 0 0 0 0 0 0 0 0 0 0 0 0 0 0
0 0 0 0 0 0 0 0 0 0 0 0 0 0 0 0 0 0 0 0 0 0 0 0 0 0 0 0 0 0 0 0 0 0 0 0 0 0 0 0 0 0 0 1
0 0 0 0 0 0 0 0 0 0 0 0 0 0 0 0 0 0 0 0 0 0 0 0 0 0 0 0 0 0 0 0 0 0 0 0 0 0 0 0 0 0 0 1
0 0 0 0 0 0 0 0 0 0 0 0 0 0 0 0 0 0 0 0 0 0 0 0 0 0 0 0 0 0 0 0 0 0 0 0 0 0 0 0 0 0 0 1
0 0 0 0 0 0 0 0 0 0 0 0 0 0 0 0 0 0 0 0 0 0 0 0 0 0 0 0 0 0 0 0 0 0 0 0 0 0 0 0 0 0 0 0
0 0 0 0 0 0 0 0 0 0 0 0 0 0 0 0 0 0 0 0 0 0 0 0 0 0 0 0 0 0 0 0 0 0 0 0 0 0 0 0 0 0 0 0
0 0 0 0 0 0 0 0 0 0 0 0 0 0 0 0 0 0 0 0 0 0 0 0 0 0 0 0 0 0 0 0 0 0 0 0 0 0 0 0 0 0 0 0
0 0 0 0 0 0 0 0 0 0 0 0 0 0 0 0 0 0 0 0 0 0 0 0 0 0 0 0 0 0 0 0 0 0 0 0 0 0 0 0 0 0 0 0
0 0 0 0 0 0 0 0 0 0 0 0 0 0 0 0 0 0 0 0 0 0 0 0 0 0 0 0 0 0 0 0 0 0 0 0 0 0 0 0 0 0 0 0
0 0 0 0 0 0 0 0 0 0 0 0 0 0 0 0 0 0 0 0 0 0 0 0 0 0 0 0 0 0 0 0 0 0 0 0 0 0 0 0 0 0 0 0
0 0 0 0 0 0 0 0 0 0 0 0 0 0 0 0 0 0 0 0 0 0 0 0 0 0 0 0 0 0 0 0 0 0 0 0 0 0 0 0 0 0 0 0
0 0 0 0 0 0 0 0 0 0 0 0 0 0 0 0 0 0 0 0 0 0 0 0 0 0 0 0 0 0 0 0 0 0 0 0 0 0 0 0 0 0 0 0
0 0 0 0 0 0 0 0 0 0 0 0 0 0 0 0 0 0 0 0 0 0 0 0 0 0 0 0 0 0 0 0 0 0 0 0 0 0 0 0 0 0 0 0
0 0 0 0 0 0 0 0 0 0 0 0 0 0 0 0 0 0 0 0 0 0 0 0 0 0 0 0 0 0 0 0 0 0 0 0 0 0 0 0 0 0 0 0
0 0 0 0 0 0 0 0 0 0 0 0 0 0 0 0 0 0 0 0 0 0 0 0 0 0 0 0 0 0 0 0 0 0 0 0 0 0 0 0 0 0 0 0
0 0 0 0 0 0 0 0 0 0 0 0 0 0 0 0 0 0 0 0 0 0 0 0 0 0 0 0 0 0 0 0 0 0 0 0 0 0 0 0 0 0 0 0
0 0 0 0 0 0 0 0 0 0 0 0 0 0 0 0 0 0 0 0 0 0 0 0 0 0 0 0 0 0 0 0 0 0 0 0 0 0 0 0 0 0 0 0
0 0 0 0 0 0 0 0 0 0 0 0 0 0 0 0 0 0 0 0 0 0 0 0 0 0 0 0 0 0 0 0 0 0 0 0 0 0 0 0 0 0 0 0
Wind_Speed
1 2 2 3 4 3 4 6 7 5 2 5 7 8 7 4 4 4 3 2 2 1 2 3 4 4 4 4 4 4 3 3 1 1 1 1 1 1 1 1 2 2 3 2
2 2 2 2 2 3 4 6 6 4 2 4 6 9 7 4 4 4 4 3 2 1 2 3 4 4 4 4 4 4 3 3 2 1 1 1 1 1 1 1 2 2 3 2
3 0 2 2 3 4 5 6 6 5 4 4 6 8 6 4 3 2 2 2 2 2 1 2 2 3 4 4 4 3 3 3 2 2 1 1 1 1 1 1 1 2 2 2
1 1 2 3 3 4 5 3 5 5 5 3 4 7 5 4 4 3 2 2 2 2 1 1 2 2 3 3 3 3 3 3 2 2 1 1 1 1 2 2 1 2 2 2
1 1 2 3 3 4 3 2 3 5 5 5 5 7 4 4 5 4 2 2 2 2 1 1 2 2 3 3 3 3 3 3 3 2 2 2 2 2 2 2 2 2 1 1
1 1 2 2 2 2 1 1 2 3 4 6 5 7 6 4 5 4 3 2 2 2 1 1 2 2 3 3 3 3 3 3 3 3 3 3 3 3 2 2 2 2 1 1
1 1 0 1 1 1 2 2 2 3 4 4 1 6 6 0 2 3 4 3 2 2 2 1 2 2 3 3 3 3 3 3 4 4 3 3 3 3 3 3 2 2 2 2
2 2 1 0 2 2 2 3 3 4 4 3 3 7 3 1 2 3 3 2 2 3 2 2 2 2 3 3 3 3 3 4 4 4 4 4 3 3 3 3 2 3 2 2
2 1 1 1 1 2 2 3 2 2 3 6 5 5 4 3 2 3 3 2 3 3 3 3 3 3 3 3 3 3 3 4 4 4 4 4 3 3 3 3 2 2 2 2
2 3 1 1 1 0 2 1 2 3 4 6 6 6 4 3 4 3 3 3 3 3 3 4 3 3 3 3 4 3 3 3 4 4 3 3 3 3 3 3 2 2 2 2
2 2 1 2 4 3 3 2 3 3 4 6 7 4 1 3 3 4 4 4 4 4 4 4 4 4 4 4 4 4 3 3 3 3 3 3 3 3 3 2 3 2 2 2
2 2 3 4 1 3 4 4 4 4 5 5 7 5 2 1 3 4 5 5 5 4 5 5 4 4 4 4 4 4 4 3 3 3 3 3 3 3 3 3 3 3 2 2
3 3 2 2 3 2 3 4 4 3 4 6 8 6 1 2 3 4 5 5 5 5 5 5 4 4 4 5 5 5 4 4 3 3 3 3 3 3 3 3 3 3 2 2
2 3 5 6 3 2 5 6 6 6 6 8 11 11 8 7 7 6 5 5 5 5 5 5 5 4 4 5 5 5 4 4 3 3 3 3 3 3 3 3 3 3 3 2
2 4 5 7 6 5 8 9 9 10 11 11 11 11 11 8 7 6 5 5 5 6 5 5 5 5 5 5 5 5 4 3 3 3 3 3 3 3 3 3 3 3 2 2
1 3 3 6 6 6 9 11 11 12 12 13 13 14 8 6 5 6 5 5 5 6 6 6 6 5 5 5 5 5 4 4 3 3 3 3 3 3 3 3 3 2 2 2
3 3 3 5 3 5 10 9 10 8 8 9 12 10 6 6 6 7 6 6 6 6 6 7 6 6 6 5 5 5 4 4 3 3 3 2 3 3 3 3 2 2 2 2
4 3 3 3 2 9 3 0 4 7 8 8 8 7 7 7 7 7 6 6 7 7 7 6 6 6 6 5 5 5 4 3 3 3 2 2 2 3 3 3 2 2 2 2
4 4 3 3 5 9 5 3 3 4 7 6 7 7 7 7 7 6 3 5 7 7 7 6 6 6 5 5 4 4 3 3 3 3 3 3 3 3 3 3 3 2 2 2
1 3 4 4 6 8 3 1 0 2 6 2 4 5 5 6 7 5 4 6 7 6 5 5 5 5 4 4 4 3 3 3 3 3 3 3 3 3 3 3 3 2 2 2
3 4 6 7 7 8 1 1 3 4 3 0 3 5 5 6 7 7 7 7 6 6 5 5 5 4 4 4 3 3 3 3 3 3 3 3 3 3 3 3 2 2 1 1
6 5 6 5 7 7 3 4 5 3 2 3 4 5 6 7 8 7 7 6 6 5 5 5 4 4 4 3 3 3 3 3 3 2 2 2 3 2 2 2 1 1 1 1
6 5 3 6 5 2 3 4 4 3 4 4 5 5 5 6 7 7 7 6 5 5 5 4 4 4 4 3 3 3 3 2 2 2 2 2 2 1 1 1 1 1 0 1
4 3 4 6 8 6 6 7 6 5 6 6 6 6 6 7 8 7 6 6 5 5 4 4 4 4 4 3 3 3 3 2 2 2 2 1 1 1 1 1 1 1 1 1
4 5 5 8 7 6 6 6 6 6 6 6 6 6 6 7 7 7 6 5 5 4 4 4 4 4 4 4 3 3 2 2 2 2 1 1 1 1 1 1 1 2 2 2
6 7 7 7 5 5 5 4 5 6 6 6 6 6 6 6 7 7 6 5 5 4 4 4 4 4 4 4 3 3 2 2 2 1 1 1 1 1 1 1 1 2 2 4
Wind_Direction
40 187 207 219 230 262 253 245 253 260 290 265 254 260 265 252 248 250 256 263 279 312 10 26 24 27 28 23 24 23 24 22 17 356 333 307 341 348 355 3 4 357 353 356
170 219 263 259 237 248 255 255 265 275 286 272 270 267 261 246 246 254 252 248 266 316 17 26 23 28 25 21 15 15 14 14 7 339 320 305 302 289 321 347 355 357 348 343
205 345 262 227 225 247 251 256 265 276 291 248 271 256 228 210 206 231 253 255 249 277 323 5 18 20 19 14 6 2 360 359 356 345 336 357 328 301 312 330 341 346 332 324
217 279 227 223 233 249 249 257 258 257 258 251 256 273 224 211 223 226 249 267 270 282 307 346 359 5 3 1 0 357 358 359 354 349 321 301 294 294 299 304 305 315 316 317
204 286 232 234 254 249 281 305 262 259 253 265 231 257 248 201 228 232 245 273 283 289 300 327 338 346 354 1 2 359 1 1 356 345 322 296 288 292 300 299 296 302 308 311
257 304 296 288 297 240 247 238 242 230 235 249 235 243 263 205 228 235 244 270 300 300 306 319 333 346 353 1 6 4 4 358 352 343 327 311 302 295 291 294 295 295 303 302
222 169 59 304 249 174 239 250 246 224 225 244 189 244 262 168 251 255 256 263 302 309 302 312 328 338 346 352 354 350 349 347 342 336 329 313 299 291 277 281 286 290 294 297
238 229 144 297 271 256 228 250 262 274 272 279 221 247 270 285 281 287 272 272 316 320 320 320 317 320 330 335 332 332 330 329 329 324 323 318 304 291 285 280 281 281 284 294
244 249 50 322 309 268 209 217 306 289 288 269 246 255 267 245 260 283 286 293 309 311 315 311 309 316 321 319 317 310 307 314 320 318 317 319 315 300 291 289 279 280 289 297
241 258 266 304 212 13 298 186 198 226 261 268 265 258 262 240 259 277 293 301 312 312 310 310 308 309 313 310 305 302 298 301 308 312 313 314 310 300 289 281 278 281 290 298
222 237 251 218 226 230 181 196 230 233 266 272 280 277 358 269 282 287 301 312 316 319 315 310 305 306 314 315 308 304 301 303 307 312 314 311 311 302 288 281 279 280 282 292
201 235 252 250 289 300 251 236 222 243 243 250 273 281 70 283 306 304 309 315 314 314 312 305 306 313 318 315 313 308 304 301 305 310 311 306 308 302 289 284 281 276 278 282
177 197 248 223 187 188 238 239 247 266 258 246 256 268 87 322 317 317 314 313 313 311 314 311 312 316 316 315 312 308 304 301 305 308 306 305 307 302 291 287 283 274 271 274
209 205 235 263 293 235 247 241 233 232 244 252 253 272 281 294 300 308 310 311 308 309 315 315 313 311 314 315 313 307 304 303 301 300 300 302 306 303 295 290 282 277 272 270
214 232 243 267 279 269 261 253 236 233 245 254 267 271 281 291 295 297 304 308 308 312 317 318 315 313 312 313 314 311 310 306 296 291 297 306 310 306 297 291 285 278 275 273
204 232 251 263 260 265 269 260 246 246 249 252 266 273 285 296 294 293 298 298 301 308 314 315 312 309 306 307 310 312 313 308 297 295 304 316 317 310 303 297 289 278 276 276
190 188 240 268 292 278 261 245 233 238 237 241 252 267 287 294 295 297 293 288 295 303 305 306 308 301 298 298 297 296 299 302 301 304 308 314 312 308 304 300 289 278 280 288
190 193 229 271 268 252 269 306 231 242 256 250 258 272 284 295 306 296 281 282 292 297 298 301 305 302 299 296 296 296 298 298 298 300 303 311 310 304 302 297 287 287 285 286
217 195 209 236 260 274 273 225 214 237 271 250 248 266 287 308 299 282 277 291 294 292 295 298 302 302 299 294 294 291 290 291 290 293 301 306 304 297 294 293 290 288 284 283
146 203 216 225 254 265 285 120 165 242 264 223 239 267 288 298 287 297 320 304 298 297 298 303 307 305 296 295 289 277 279 282 287 296 301 300 297 289 286 287 288 285 279 271
184 201 218 232 251 266 280 136 179 231 290 325 258 266 274 275 285 307 306 300 297 296 300 304 304 302 299 296 282 271 276 284 294 301 301 299 293 289 286 286 285 282 283 285
203 201 208 211 231 251 147 165 217 273 323 275 276 275 277 282 291 293 295 297 300 303 306 307 304 301 299 289 277 276 283 296 300 300 295 295 296 301 298 294 295 291 282 275
221 223 221 219 239 301 208 233 265 278 267 274 276 283 282 283 287 290 293 296 298 300 303 303 299 298 297 288 278 279 292 298 292 288 285 286 296 309 312 308 308 302 293 296
227 223 233 255 259 260 258 259 262 262 267 279 280 278 275 281 285 287 291 292 293 296 297 300 297 296 299 300 292 284 285 280 272 273 281 285 300 324 335 322 316 320 325 313
234 197 226 254 269 281 261 247 259 272 272 275 280 277 273 276 280 283 286 285 286 289 293 291 287 288 294 298 293 287 273 256 257 262 269 292 310 318 324 324 328 324 322 324
211 208 218 249 248 250 271 274 270 267 269 274 279 283 280 276 278 280 282 281 281 282 287 287 285 285 291 291 284 282 266 242 241 247 269 298 312 321 320 329 344 357 330 337